Overview Statistics Trail Chart Weather Telemetry Raw packets
 

This is the latest recevied weather packets stored in our database for station/object HP1MRA-15. If no packets are shown the sender has not sent any weather packets the latest 10 day(s).

<< 86 87 88 89 90 91 92 >>
Time Temp. Humidity Pressure Rain* Wind** Luminosity Snow
1788098857 33.89° C 77% 1003.3 hPa 0 mm - - -
1788098558 33.89° C 77% 1003.4 hPa 0 mm - - -
1788098259 33.33° C 76% 1003.4 hPa 0 mm - - -
1788097958 - - 1003.4 hPa 0 mm - - -
1788097656 32.22° C 78% 1003.7 hPa 0 mm - - -
1788097357 - - 1003.5 hPa 0 mm - - -
1788097057 31.67° C 79% 1003.4 hPa 0 mm - - -
1788097056 31.67° C 79% 1003.3 hPa 0 mm - - -
1788096755 31.67° C 78% 1003.3 hPa 0 mm - - -
1788096454 31.67° C 79% 1003.2 hPa 0 mm - - -
1788095884 31.11° C 79% 1003.4 hPa 0 mm - - -
1788095584 30.56° C 79% 1003.3 hPa 0 mm - - -
1788095283 30° C 78% 1003.3 hPa 0 mm - - -
1788094984 30° C 79% 1003 hPa 0 mm - - -
1788094683 30° C 79% 1003 hPa 0 mm - - -
1788094384 29.44° C 79% 1003 hPa 0 mm - - -
1788094382 - - 1003 hPa 0 mm - - -
1788094084 29.44° C 79% 1002.9 hPa 0 mm - - -
1788093784 28.89° C 80% 1002.7 hPa 0 mm - - -
1788093484 28.89° C 80% 1002.8 hPa 0 mm - - -
1788093482 28.89° C 80% 1002.8 hPa 0 mm - - -
1788093183 28.33° C 80% 1002.6 hPa 0 mm - - -
1788092884 28.33° C 80% 1002.6 hPa 0 mm - - -
1788092581 28.33° C 80% 1002.5 hPa 0 mm - - -
1788092284 27.78° C 80% 1002.5 hPa 0 mm - - -

* Rain latest hour (hover to see other rain measurements)
** Current wind speed in m/s (hover to see current wind gust speed)